FW8149 Weather Reports


time (UTC)temp
F
wind
direction
speed
knots
gust
knots
rain 1hr
in
rain 24hr
in
rain mn
in
humidity
%
barometer
mb
20260505192017 58 49 0.0 0.9 0.00 0.00 0.00 63 1011.8
20260505191525 58 49 0.0 0.9 0.00 0.00 0.00 63 1011.8
20260505191016 58 49 0.0 0.9 0.00 0.00 0.00 64 1011.7
20260505190518 58 44 0.0 1.7 0.00 0.00 0.00 63 1011.7
20260505190117 58 44 0.0 1.7 0.00 0.00 0.00 63 1011.7
20260505185516 58 42 0.0 2.6 0.00 0.00 0.00 62 1011.8
20260505185016 58 42 0.0 2.6 0.00 0.00 0.00 62 1011.8
20260505184516 58 42 0.0 1.7 0.00 0.00 0.00 62 1011.7
20260505184016 58 42 0.0 2.6 0.00 0.00 0.00 62 1011.6
20260505183516 58 42 0.0 2.6 0.00 0.00 0.00 62 1011.5
20260505183020 58 42 0.9 2.6 0.00 0.00 0.00 62 1011.5
20260505182515 58 32 0.0 2.6 0.00 0.00 0.00 62 1011.6
20260505182015 59 57 0.0 2.6 0.00 0.00 0.00 61 1011.4
20260505181521 59 38 0.0 3.5 0.00 0.00 0.00 61 1011.5
20260505181014 59 51 0.9 3.5 0.00 0.00 0.00 61 1011.5
20260505180514 59 59 0.9 3.5 0.00 0.00 0.00 61 1011.5
20260505180014 59 71 0.9 3.5 0.00 0.00 0.00 61 1011.5
20260505175514 59 66 0.0 3.5 0.00 0.00 0.00 60 1011.5
20260505175015 59 68 0.0 1.7 0.00 0.00 0.00 60 1011.5
20260505174513 59 82 0.0 1.7 0.00 0.00 0.00 60 1011.5
20260505174013 59 80 0.0 3.5 0.00 0.00 0.00 60 1011.5
20260505173517 60 73 0.9 5.2 0.00 0.00 0.00 59 1011.5
20260505173014 60 84 0.9 5.2 0.00 0.00 0.00 59 1011.6
20260505172613 60 37 0.0 1.7 0.00 0.00 0.00 59 1011.6
20260505172015 60 43 0.0 5.2 0.00 0.00 0.00 58 1011.5
20260505171513 60 171 0.0 4.3 0.00 0.00 0.00 58 1011.5
20260505171013 60 239 0.0 4.3 0.00 0.00 0.00 58 1011.4
20260505170512 61 88 0.0 2.6 0.00 0.00 0.00 57 1011.5
20260505170014 61 13 0.0 3.5 0.00 0.00 0.00 58 1011.6
20260505165511 61 34 0.0 4.3 0.00 0.00 0.00 57 1011.5
20260505165011 61 44 0.9 2.6 0.00 0.00 0.00 57 1011.5
20260505164511 61 44 0.0 3.5 0.00 0.00 0.00 57 1011.5
20260505164010 61 46 0.0 4.3 0.00 0.00 0.00 57 1011.4
20260505163510 62 57 0.9 4.3 0.00 0.00 0.00 56 1011.4
20260505163010 62 42 1.7 2.6 0.00 0.00 0.00 56 1011.5
20260505162610 62 64 0.0 4.3 0.00 0.00 0.00 56 1011.5
20260505162008 62 81 0.0 4.3 0.00 0.00 0.00 56 1011.4
20260505161523 62 78 0.0 2.6 0.00 0.00 0.00 56 1011.5
20260505161007 62 58 0.0 2.6 0.00 0.00 0.00 56 1011.5
20260505160510 62 38 0.0 1.7 0.00 0.00 0.00 56 1011.5
20260505153004 62 94 0.9 3.5 0.00 0.00 0.00 56 1011.7
20260505152501 62 22 0.0 3.5 0.00 0.00 0.00 55 1011.8
20260505152001 62 22 0.9 4.3 0.00 0.00 0.00 55 1011.8
20260505151503 62 49 0.9 4.3 0.00 0.00 0.00 55 1011.8
20260505151001 62 59 1.7 4.3 0.00 0.00 0.00 55 1011.8
20260505150502 63 45 1.7 4.3 0.00 0.00 0.00 55 1011.8
20260505140556 65 52 0.9 4.3 0.00 0.00 0.00 54 1012.0
20260505124550 64 64 2.6 7.0 0.00 0.00 0.00 54 1012.6
20260505124044 63 49 1.7 6.1 0.00 0.00 0.00 55 1012.5
20260505123545 64 14 1.7 6.1 0.00 0.00 0.00 55 1012.5
20260505123044 63 101 0.0 5.2 0.00 0.00 0.00 56 1012.5
20260505122545 63 43 1.7 5.2 0.00 0.00 0.00 56 1012.6
20260505122043 64 33 2.6 5.2 0.00 0.00 0.00 55 1012.6
20260505121544 64 53 2.6 5.2 0.00 0.00 0.00 55 1012.6
20260505121043 64 69 0.0 3.5 0.00 0.00 0.00 55 1012.5
20260505120543 64 65 0.0 6.1 0.00 0.00 0.00 57 1012.6
20260505120043 64 97 1.7 6.1 0.00 0.00 0.00 57 1012.6
20260505115542 63 40 2.6 7.0 0.00 0.00 0.00 58 1012.5
20260505115042 63 41 2.6 7.0 0.00 0.00 0.00 59 1012.6
20260505114542 63 268 1.7 7.0 0.00 0.00 0.00 58 1012.5
20260505114041 63 355 2.6 6.1 0.00 0.00 0.00 58 1012.7
20260505113539 63 44 1.7 7.8 0.00 0.00 0.00 58 1012.7
20260505113041 63 61 2.6 8.7 0.00 0.00 0.00 57 1012.7
20260505112540 63 38 2.6 7.0 0.00 0.00 0.00 57 1012.9
20260505112039 63 53 3.5 7.8 0.00 0.00 0.00 57 1012.8
20260505111540 63 27 2.6 7.8 0.00 0.00 0.00 58 1012.9
20260505111040 63 42 1.7 7.8 0.00 0.00 0.00 58 1012.9
20260505110538 63 65 1.7 6.1 0.00 0.00 0.00 58 1012.9
20260505102032 64 28 3.5 7.0 0.00 0.00 0.00 59 1013.1
20260505101537 63 34 2.6 5.2 0.00 0.00 0.00 61 1013.1
20260505101030 63 188 0.9 5.2 0.00 0.00 0.00 62 1013.2
20260505100528 62 207 0.9 4.3 0.00 0.00 0.00 63 1013.2
20260505100027 61 26 0.0 7.0 0.00 0.00 0.00 66 1013.3
20260505095526 60 52 1.7 7.0 0.00 0.00 0.00 66 1013.2
20260505095024 60 57 1.7 7.0 0.00 0.00 0.00 67 1013.1
20260505094524 60 35 3.5 7.0 0.00 0.00 0.00 66 1013.3
20260505094022 59 25 2.6 6.1 0.00 0.00 0.00 68 1013.2
20260505093520 59 29 2.6 7.0 0.00 0.00 0.00 69 1013.2
20260505093020 58 51 3.5 7.0 0.00 0.00 0.00 68 1013.2
20260505092519 58 36 1.7 5.2 0.00 0.00 0.00 69 1013.2
20260505092019 58 36 1.7 5.2 0.00 0.00 0.00 70 1013.2
20260505091518 58 29 1.7 7.0 0.00 0.00 0.00 70 1013.3
20260505091018 58 340 3.5 7.0 0.00 0.00 0.00 70 1013.4
20260505090517 58 27 2.6 8.7 0.00 0.00 0.00 70 1013.4
20260505090033 58 78 3.5 8.7 0.00 0.00 0.00 70 1013.4
20260505085513 58 54 2.6 8.7 0.00 0.00 0.00 72 1013.6
20260505085012 57 49 0.0 4.3 0.00 0.00 0.00 74 1013.5
20260505084511 56 28 0.9 5.2 0.00 0.00 0.00 74 1013.5
20260505084010 55 44 1.7 5.2 0.00 0.00 0.00 75 1013.5
20260505083509 55 66 1.7 4.3 0.00 0.00 0.00 75 1013.5
20260505083004 55 47 0.9 4.3 0.00 0.00 0.00 75 1013.6
20260505082603 55 93 0.9 5.2 0.00 0.00 0.00 75 1013.5
20260505081528 55 55 1.7 7.0 0.00 0.00 0.00 76 1013.5
20260505081006 55 40 1.7 7.0 0.00 0.00 0.00 76 1013.5
20260505080520 55 51 0.9 5.2 0.00 0.00 0.00 77 1013.5
20260505080009 55 60 1.7 4.3 0.00 0.00 0.00 77 1013.4
20260505075522 55 42 1.7 5.2 0.00 0.00 0.00 78 1013.5
20260505075109 55 95 3.5 6.1 0.00 0.00 0.00 78 1013.4
20260505074507 55 38 2.6 6.1 0.00 0.00 0.00 77 1013.5
20260505074007 55 51 1.7 7.0 0.00 0.00 0.00 77 1013.4
20260505073607 55 44 2.6 7.0 0.00 0.00 0.00 77 1013.4
20260505073010 55 42 3.5 7.8 0.00 0.00 0.00 76 1013.3
20260505072506 55 13 3.5 7.8 0.00 0.00 0.00 75 1013.3
20260505072005 55 41 0.0 3.5 0.00 0.00 0.00 77 1013.4
20260505071505 55 40 1.7 3.5 0.00 0.00 0.00 77 1013.4
20260505071004 55 46 0.9 4.3 0.00 0.00 0.00 77 1013.4
20260505070503 54 38 1.7 4.3 0.00 0.00 0.00 78 1013.5
20260505070003 54 17 0.9 2.6 0.00 0.00 0.00 79 1013.6
20260505065502 54 33 0.9 3.5 0.00 0.00 0.00 79 1013.6
20260505065001 54 34 0.9 3.5 0.00 0.00 0.00 80 1013.6
20260505064601 54 24 0.9 3.5 0.00 0.00 0.00 80 1013.6
20260505064100 54 39 0.0 2.6 0.00 0.00 0.00 82 1013.6
20260505063558 53 56 0.9 2.6 0.00 0.00 0.00 82 1013.7
20260505063058 53 40 0.9 3.5 0.00 0.00 0.00 82 1013.7
20260505062557 53 38 0.9 4.3 0.00 0.00 0.00 82 1013.6
20260505062057 53 26 0.9 4.3 0.00 0.00 0.00 82 1013.7
20260505061557 53 55 0.9 4.3 0.00 0.00 0.00 83 1013.7
20260505061058 53 51 1.7 3.5 0.00 0.00 0.00 84 1013.8
20260505060556 53 46 0.9 3.5 0.00 0.00 0.00 84 1013.7
20260505060058 53 48 0.9 3.5 0.00 0.00 0.00 84 1013.7
20260505055556 53 59 0.0 3.5 0.00 0.00 0.00 84 1013.7
20260505055058 53 43 0.9 7.0 0.00 0.00 0.00 84 1013.7
20260505054558 52 51 2.6 7.0 0.00 0.00 0.00 84 1013.6
20260505054054 52 82 1.7 3.5 0.00 0.00 0.00 85 1013.7
20260505053552 52 40 0.9 4.3 0.00 0.00 0.00 85 1013.7
20260505053052 52 26 0.0 2.6 0.00 0.00 0.00 85 1013.7
20260505052552 52 52 0.9 4.3 0.00 0.00 0.00 85 1013.7
20260505052050 52 53 0.9 4.3 0.00 0.00 0.00 85 1013.8
20260505051549 52 27 0.0 2.6 0.00 0.00 0.00 85 1013.7
20260505051049 52 28 0.0 3.5 0.00 0.00 0.00 85 1013.9
20260505050547 52 46 0.0 3.5 0.00 0.00 0.00 85 1013.8
20260505041544 52 73 0.0 1.7 0.00 0.00 0.00 86 1013.9
20260505041042 52 73 0.0 0.0 0.00 0.00 0.00 86 1013.8
20260505040542 52 75 0.0 0.0 0.00 0.00 0.00 86 1013.8
20260505040042 52 75 0.0 0.9 0.00 0.00 0.00 86 1013.7
20260505035541 52 75 0.0 2.6 0.00 0.00 0.00 86 1013.8
20260505035041 52 78 0.0 2.6 0.00 0.00 0.00 86 1013.9
20260505034541 52 80 0.0 2.6 0.00 0.00 0.00 86 1013.9
20260505034040 52 68 0.0 1.7 0.00 0.00 0.00 86 1013.9
20260505033540 52 69 0.0 2.6 0.00 0.00 0.00 86 1013.9
20260505033043 53 71 0.0 0.9 0.00 0.00 0.00 86 1013.9
20260505032542 52 71 0.0 0.9 0.00 0.00 0.00 86 1013.8
20260505032039 52 71 0.0 3.5 0.00 0.00 0.00 86 1013.9
20260505031552 53 82 0.0 2.6 0.00 0.00 0.00 86 1014.0
20260505031040 52 105 0.0 1.7 0.00 0.00 0.00 86 1014.0
20260505030539 53 105 0.0 1.7 0.00 0.00 0.00 86 1013.9
20260505030039 53 107 0.0 1.7 0.00 0.00 0.00 86 1013.9
20260505025538 53 162 0.0 1.7 0.00 0.00 0.00 86 1014.1
20260505025038 53 162 0.0 1.7 0.00 0.00 0.00 86 1014.0
20260505024547 53 192 0.0 2.6 0.00 0.00 0.00 86 1014.1
20260505024037 53 65 0.0 3.5 0.00 0.00 0.00 86 1014.0
20260505023536 53 65 0.0 2.6 0.00 0.00 0.00 86 1014.1
20260505023041 53 62 0.0 3.5 0.00 0.00 0.00 86 1014.0
20260505022536 53 55 0.0 3.5 0.00 0.00 0.00 85 1014.0
20260505022036 53 62 0.0 2.6 0.00 0.00 0.00 85 1014.1
20260505021536 53 73 0.0 3.5 0.00 0.00 0.00 85 1014.1
20260505021034 53 63 0.0 2.6 0.00 0.00 0.00 85 1014.0
20260505020534 53 67 0.0 1.7 0.00 0.00 0.00 85 1014.2
20260505020034 53 66 0.0 2.6 0.00 0.00 0.00 85 1014.3
20260505015534 53 67 0.0 2.6 0.00 0.00 0.00 85 1014.1
20260505015034 53 67 0.0 2.6 0.00 0.00 0.00 85 1014.0
20260505014546 53 67 0.0 3.5 0.00 0.00 0.00 85 1014.1
20260505014033 53 55 0.0 2.6 0.00 0.00 0.00 85 1014.2
20260505013533 53 65 0.0 6.1 0.00 0.00 0.00 85 1014.4
20260505013032 53 32 0.0 6.1 0.00 0.00 0.00 84 1014.3
20260505012531 53 57 0.9 3.5 0.00 0.00 0.00 84 1014.4
20260505012030 53 101 0.0 3.5 0.00 0.00 0.00 84 1014.3
20260505011530 53 51 0.0 3.5 0.00 0.00 0.00 84 1014.5
20260505011028 53 29 0.0 5.2 0.00 0.00 0.00 84 1014.5
20260505010527 54 88 0.0 5.2 0.00 0.00 0.00 84 1014.5
20260505010027 54 17 0.0 3.5 0.00 0.00 0.00 84 1014.6
20260505005527 54 148 0.0 5.2 0.00 0.00 0.00 84 1014.6
20260505005027 54 202 0.0 5.2 0.00 0.00 0.00 84 1014.6
20260505004527 54 215 0.0 2.6 0.00 0.00 0.00 84 1014.7
20260505004026 54 63 0.0 1.7 0.00 0.00 0.00 84 1014.6
20260505003530 54 81 0.0 1.7 0.00 0.00 0.00 84 1014.7
20260505003025 54 82 0.0 5.2 0.00 0.00 0.00 84 1014.7
20260505002525 54 107 0.0 5.2 0.00 0.00 0.00 83 1014.7
20260505002025 54 62 0.0 4.3 0.00 0.00 0.00 83 1014.6
20260505001524 54 64 1.7 4.3 0.00 0.00 0.00 83 1014.6
20260505001022 55 81 0.9 3.5 0.00 0.00 0.00 83 1014.7
20260505000522 55 72 0.9 3.5 0.00 0.00 0.00 83 1014.8
20260505000022 55 51 0.0 3.5 0.00 0.00 0.00 83 1014.8
20260504235521 55 63 0.0 2.6 0.00 0.00 0.00 83 1014.8
20260504235021 55 94 0.0 2.6 0.00 0.00 0.00 83 1014.8
20260504234520 55 192 0.0 3.5 0.00 0.00 0.00 82 1014.8
20260504234019 56 107 0.0 7.8 0.00 0.00 0.00 81 1014.8
20260504233519 56 63 1.7 7.8 0.00 0.00 0.00 80 1014.7
20260504233018 56 36 2.6 7.0 0.00 0.00 0.00 79 1014.8
20260504232518 56 34 1.7 7.8 0.00 0.00 0.00 79 1014.8
20260504232016 56 51 1.7 7.8 0.00 0.00 0.00 79 1014.9
20260504231517 56 40 1.7 6.1 0.00 0.00 0.00 79 1014.9
20260504231015 56 25 1.7 7.0 0.00 0.00 0.00 78 1014.9
20260504230514 56 51 1.7 5.2 0.00 0.00 0.00 78 1014.9
20260504230014 56 30 1.7 7.0 0.00 0.00 0.00 78 1015.0
20260504225515 56 51 2.6 7.8 0.00 0.00 0.00 78 1014.8
20260504225013 56 35 3.5 7.8 0.00 0.00 0.00 78 1014.9
20260504224514 56 21 0.9 7.0 0.00 0.00 0.00 78 1014.9
20260504224013 56 34 2.6 7.0 0.00 0.00 0.00 78 1014.9
20260504223515 56 51 3.5 7.0 0.00 0.00 0.00 78 1014.9
20260504223013 56 38 2.6 6.1 0.00 0.00 0.00 78 1014.9
20260504222513 56 63 1.7 4.3 0.00 0.00 0.00 78 1014.9
20260504222012 56 26 2.6 5.2 0.00 0.00 0.00 78 1014.9
20260504221512 56 33 2.6 6.1 0.00 0.00 0.00 79 1015.0
20260504221012 56 24 1.7 5.2 0.00 0.00 0.00 79 1015.0
20260504220515 56 26 1.7 7.8 0.00 0.00 0.00 79 1015.0
20260504220012 56 71 2.6 7.8 0.00 0.00 0.00 80 1014.9
20260504215512 57 50 1.7 3.5 0.00 0.00 0.00 82 1015.0
20260504215011 57 40 0.9 2.6 0.00 0.00 0.00 82 1014.9
20260504214511 57 34 0.9 2.6 0.00 0.00 0.00 82 1015.0
20260504214014 57 90 0.0 2.6 0.00 0.00 0.00 82 1015.0
20260504213514 57 46 0.0 1.7 0.00 0.00 0.00 81 1015.1
20260504213018 57 45 0.0 1.7 0.00 0.00 0.00 81 1015.1
20260504212511 57 44 0.0 0.9 0.00 0.00 0.00 81 1015.1
20260504212015 57 44 0.0 1.7 0.00 0.00 0.00 81 1015.0
20260504211515 57 44 0.0 2.6 0.00 0.00 0.00 81 1015.0
20260504211010 57 47 0.0 3.5 0.00 0.00 0.00 81 1015.0
20260504210510 57 65 0.9 3.5 0.00 0.00 0.00 80 1015.0
20260504210012 57 71 0.0 3.5 0.00 0.00 0.00 80 1015.0
20260504205510 57 76 0.9 3.5 0.00 0.00 0.00 80 1015.1
20260504205010 57 62 0.0 2.6 0.00 0.00 0.00 80 1015.0
20260504204521 58 95 0.0 3.5 0.00 0.00 0.00 80 1015.0
20260504204009 58 37 0.0 3.5 0.00 0.00 0.00 80 1015.0
20260504203509 58 34 0.0 4.3 0.00 0.00 0.00 79 1015.1
20260504203136 58 85 0.9 4.3 0.00 0.00 0.00 78 1015.2
20260504202509 58 44 0.0 4.3 0.00 0.00 0.00 78 1015.1
20260504202008 58 46 0.0 5.2 0.00 0.00 0.00 78 1015.1
20260504201508 58 45 0.9 5.2 0.00 0.00 0.00 78 1015.0
20260504201008 58 41 0.9 3.5 0.00 0.00 0.00 78 1015.0
20260504200507 58 61 0.0 3.5 0.00 0.00 0.00 78 1014.9
20260504200007 58 80 0.0 2.6 0.00 0.00 0.00 78 1015.0
20260504195506 58 44 0.0 2.6 0.00 0.00 0.00 78 1014.9
20260504195006 58 44 0.9 2.6 0.00 0.00 0.00 78 1014.8
20260504194507 58 42 0.0 4.3 0.00 0.00 0.00 78 1014.8
20260504194007 58 42 0.0 4.3 0.00 0.00 0.00 78 1014.8
20260504193506 58 54 1.7 4.3 0.00 0.00 0.00 78 1014.6
20260504193005 58 42 0.9 5.2 0.00 0.00 0.00 77 1014.6
20260504192504 58 28 0.9 5.2 0.00 0.00 0.00 77 1014.6